Regional Weather Roundup
Issued by NWS Newport/Morehead, NC

Current Version | Previous Version | Graphics & Text | Print | Product List | Glossary Off
Versions: 1 2 3 4 5 6 7 8 9 10 11 12 13 14 15 16 17 18 19 20 21 22 23 24 25 26 27 28 29 30 31 32 33 34 35 36 37 38 39 40 41 42 43 44 45 46 47 48 49 50

000
ASUS42 KMHX 291313
RWRMHX
WEATHER ROUNDUP FOR EASTERN NORTH CAROLINA
NATIONAL WEATHER SERVICE NEWPORT/MOREHEAD CITY NC
900 AM EDT SUN MAY 29 2016

NOTE: "FAIR" INDICATES FEW OR NO CLOUDS BELOW 12,000 FEET
WITH NO SIGNIFICANT WEATHER AND/OR OBSTRUCTIONS TO VISIBILITY

NCZ015>017-031-032-045>047-102-103-291400-
NORTH COAST

CITY           SKY/WX    TMP DP  RH WIND       PRES   REMARKS
EDENTON        CLOUDY   N/A N/A N/A E8        30.13R
ELIZABETH CITY PTSUNNY   78  73  84 E10       30.13R
KITTY HAWK     PTSUNNY   78  74  87 E5        30.12S
MANTEO         NOT AVBL

$$

NCZ045>047-081-094-103-104-291400-
CENTRAL COAST

CITY           SKY/WX    TMP DP  RH WIND       PRES   REMARKS
FRISCO         LGT RAIN  75  73  93 SE13      30.11S

$$

NCZ095-097-098-100-101-291400-
SOUTHERN COAST

CITY           SKY/WX    TMP DP  RH WIND       PRES   REMARKS
BEAUFORT       LGT RAIN  73  72  96 S8        30.08S FOG
CEDAR ISLAND   NOT AVBL
JACKSONVILLE   CLOUDY    76  73  91 E13       30.05S
PINEY ISLAND   CLOUDY   N/A N/A N/A E12       30.08S
WILMINGTON     PTSUNNY   77  73  87 SE7       30.03S


$$

NCZ011>013-027>030-043-044-078>080-089-090>093-098-291400-
COASTAL PLAIN

CITY           SKY/WX    TMP DP  RH WIND       PRES   REMARKS
AHOSKIE        MOSUNNY   72  69  91 CALM      30.12S
CLINTON        CLOUDY    73  73 100 NE3       30.06S
ELIZABETHTOWN  LGT RAIN  73  73 100 CALM      30.04S
GOLDSBORO      LGT RAIN  73  73 100 E8        30.07R
GREENVILLE     LGT RAIN  72  72 100 E10       30.11S
HAVELOCK       LGT RAIN  74  72  93 E6        30.09R VSB 1
KENANSVILLE    LGT RAIN  72  72  98 CALM      30.08R
KINSTON        CLOUDY    73  73 100 E7        30.09S
NEW BERN       LGT RAIN  73  71  93 E5        30.09F FOG
RICHLANDS      LGT RAIN  73  73 100 NE9       30.07R FOG
ROCKY MOUNT    CLOUDY    73  72  96 VRB6      30.11R
WASHINGTON     CLOUDY    73  71  96 E10       30.10R
WHITEVILLE     MOSUNNY   74  72  93 NE6       30.02S

$$

AMZ130-135-150-152-154-156-158-170-250-252-270-ANZ085-086-088-633-658-670-291400-
MARINE OBSERVATIONS

STATION/POSITION TIME  TEMP    WIND        PRES    WAVE   SWELL
                       AIR SEA DIR/SP/G            HT/PER HT/PER
                 (UTC) (F)     (DEG/KT/KT) (MB)    (FT/S) (FT/S)
CHESAPEAKE LIGHT 1300   70     120/ 11/ 12 1021.4
64 E VA BEACH    1250   69 63   80/  6/  8 1020.8    3/ 5   3/ 5
DUCK             1200   71 64   90/  5/  7 1019.5
2 E DUCK         1211      68                N/A     2/ 6
OREGON INLET     1200   75 70  110/  6/  8 1019.7
13E OREGON INLT  1300      70                N/A     4/ 5   3/ 5
HATTERAS CG      1200   75 77  120/ 12/ 15 1018.8
DIAMOND BUOY     1250   79 75  150/ 19/ 23 1019.3    5/ 6   2/15
CAPE LOOKOUT     1300   74     150/ 16/ 18 1018.3
BEAUFORT LAB     1200   74 74  150/  7/  8 1017.6
30 SE NEW RVR IN 1225      75                N/A     6/ 7
27 SE WRIGHTSVLE 1208   79 75  170/ 14/ 19 1016.4
5 SE WRIGHTSVLE  1208   76 74  140/  8/ 12 1017.3
225 S CAPE HAT   1250   76 75  120/ 10/ 12 1019.3    4/ 7   3/ 7
41 SE CHARLESTON 1250   77 78  180/ 17/ 21 1012.7    7/ 7

$$




USA.gov is the U.S. government's official web portal to all federal, state and local government web resources and services.